{"data":{"norad_id":45227,"epoch":"2026-09-19T22:44:31.280928Z","epoch_age_seconds":62127,"freshness":"FRESH","line1":"1 45227U 20012BB  26262.94758427  .00016118  00000+0  28036-3 0  9997","line2":"2 45227  53.0610  63.7360 0002125 220.0167 140.0685 15.50975008366751","mean_motion":15.50975008,"eccentricity":0.0002125,"inclination_deg":53.061,"raan_deg":63.736,"arg_perigee_deg":220.0167,"mean_anomaly_deg":140.0685,"bstar":0.00028036,"rev_number":36675,"period_min":92.84482293863,"perigee_km":412.43477678353,"apogee_km":415.32138319253,"semimajor_km":6792.015079988,"source":"CELESTRAK","updated_at":"2026-09-20T09:00:38.228580Z"}}